Main page
METAR-TAF:

METAR-TAF

Airports :

Oil platform

P11-b, Netherlands

latitude: 52-21-36N, longitude: 3-20-30E, elevation: 24 m

Current weather observation

The report was made 39 minutes ago, at 05:25 UTC
Wind 19 kt from the Southwest
Temperature 16°C
Humidity 100%
Pressure 1014 hPa
Visibility: 0800 m
Broken clouds at a height lower than 100 ft
Overcast at a height of 100 ft
light rain, drizzle

METAR: EHPG 190525Z AUTO 23019KT 0800 -RADZ BKN000 OVC001 16/16 Q1014

Time: 08:04 (06:04 UTC)


TAF: missing

Weather observations and forecasts of more than 4000 airports (METAR and TAF reports).

The available stations are represented by yellow and red dots on the map.

Hover mouse over dot to see the name of the station.

Then click to see weather observations and forecasts.

To change the map : click on the green buttons with a black cross to zoom in, on the green button with a dash to zoom out, or on the green arrows for adjacent maps.


METAR-TAF: